When you browse on this site, cookies collect data to enhance your experience and personalize the content and advertising you see.
Visit our Privacy Policy to learn more. By continuing to use the site, you agree to this use of cookies and data.
  • In Switzerland
  • List of Countries
  • For 7 days
  • Water Temperature
  • Weather Map
  • Weather Widgets
  • user-avatar
    Login

    Hourly Weather Coburg

    Today, 28 May, Thursday

    Time Temperature Precipitation Wind Pressure Humidity
    00:00 +11°C° 0 mm 0 mps 744 mmHg 85%
    01:00 +12°C° 0 mm 0 mps 744 mmHg 84%
    02:00 +13°C° 0.9 mm 1 mps 744 mmHg 88%
    03:00 +12°C° 0.9 mm 2 mps 744 mmHg 92%
    04:00 +11°C° 0.9 mm 3 mps 744 mmHg 96%
    05:00 +11°C° 0.2 mm 3 mps 744 mmHg 93%
    06:00 +11°C° 0.2 mm 4 mps 744 mmHg 90%
    07:00 +10°C° 0.2 mm 4 mps 744 mmHg 86%
    08:00 +12°C° 0 mm 4 mps 745 mmHg 75%
    09:00 +13°C° 0 mm 4 mps 745 mmHg 63%
    10:00 +14°C° 0 mm 4 mps 745 mmHg 52%
    11:00 +15°C° 0 mm 4 mps 745 mmHg 50%
    12:00 +17°C° 0 mm 4 mps 744 mmHg 48%
    13:00 +18°C° 0 mm 4 mps 744 mmHg 45%
    14:00 +18°C° 0 mm 4 mps 744 mmHg 46%
    15:00 +18°C° 0 mm 4 mps 744 mmHg 46%
    16:00 +17°C° 0 mm 4 mps 743 mmHg 46%
    17:00 +15°C° 0.1 mm 4 mps 743 mmHg 55%
    18:00 +14°C° 0.1 mm 3 mps 743 mmHg 63%
    19:00 +13°C° 0.1 mm 3 mps 743 mmHg 72%
    20:00 +11°C° 0 mm 3 mps 744 mmHg 78%
    21:00 +10°C° 0 mm 2 mps 744 mmHg 84%
    22:00 +9°C° 0 mm 2 mps 744 mmHg 90%
    23:00 +8°C° 0 mm 2 mps 744 mmHg 91%

    Tomorrow, 29 May, Friday

    Time Temperature Precipitation Wind Pressure Humidity
    00:00 +8°C° 0 mm 2 mps 744 mmHg 93%
    01:00 +8°C° 0 mm 2 mps 744 mmHg 95%
    02:00 +8°C° 0 mm 2 mps 744 mmHg 96%
    03:00 +7°C° 0 mm 2 mps 744 mmHg 96%
    04:00 +7°C° 0 mm 2 mps 743 mmHg 97%
    05:00 +8°C° 0 mm 2 mps 743 mmHg 92%
    06:00 +9°C° 0 mm 3 mps 743 mmHg 88%
    07:00 +10°C° 0 mm 3 mps 743 mmHg 83%
    08:00 +11°C° 0 mm 3 mps 743 mmHg 76%
    09:00 +13°C° 0 mm 4 mps 743 mmHg 69%
    10:00 +14°C° 0 mm 4 mps 743 mmHg 62%
    11:00 +15°C° 0 mm 4 mps 743 mmHg 55%
    12:00 +17°C° 0 mm 4 mps 743 mmHg 48%
    13:00 +17°C° 0 mm 5 mps 742 mmHg 41%
    14:00 +17°C° 0 mm 5 mps 742 mmHg 42%
    15:00 +17°C° 0 mm 5 mps 742 mmHg 44%
    16:00 +17°C° 0 mm 5 mps 741 mmHg 46%
    17:00 +16°C° 0 mm 5 mps 741 mmHg 51%
    18:00 +15°C° 0 mm 4 mps 741 mmHg 57%
    19:00 +14°C° 0 mm 4 mps 740 mmHg 62%
    20:00 +12°C° 0 mm 3 mps 740 mmHg 68%
    21:00 +11°C° 0 mm 3 mps 741 mmHg 73%
    22:00 +9°C° 0 mm 2 mps 741 mmHg 78%
    23:00 +8°C° 0 mm 2 mps 741 mmHg 80%

    Day after tomorrow, 30 May, Saturday

    Time Temperature Precipitation Wind Pressure Humidity
    00:00 +8°C° 0 mm 2 mps 741 mmHg 82%
    01:00 +7°C° 0 mm 2 mps 741 mmHg 83%
    02:00 +7°C° 0 mm 2 mps 741 mmHg 85%
    03:00 +6°C° 0 mm 2 mps 741 mmHg 87%
    04:00 +6°C° 0 mm 2 mps 741 mmHg 88%
    05:00 +7°C° 0 mm 2 mps 741 mmHg 81%
    06:00 +9°C° 0 mm 3 mps 741 mmHg 73%
    07:00 +11°C° 0 mm 4 mps 741 mmHg 66%
    08:00 +12°C° 0 mm 4 mps 741 mmHg 60%
    09:00 +13°C° 0 mm 4 mps 741 mmHg 55%
    10:00 +14°C° 0 mm 5 mps 741 mmHg 50%
    11:00 +14°C° 0 mm 5 mps 741 mmHg 51%
    12:00 +14°C° 0 mm 5 mps 740 mmHg 53%
    13:00 +14°C° 0 mm 5 mps 740 mmHg 55%
    14:00 +14°C° 0.1 mm 5 mps 740 mmHg 56%
    15:00 +14°C° 0.1 mm 4 mps 739 mmHg 58%
    16:00 +14°C° 0.1 mm 4 mps 739 mmHg 59%
    17:00 +14°C° 0 mm 4 mps 739 mmHg 63%
    18:00 +13°C° 0 mm 3 mps 739 mmHg 68%
    19:00 +13°C° 0 mm 3 mps 738 mmHg 72%
    20:00 +12°C° 0 mm 2 mps 739 mmHg 80%
    21:00 +9°C° 0 mm 2 mps 739 mmHg 87%
    22:00 +8°C° 0 mm 2 mps 739 mmHg 95%
    23:00 +8°C° 0 mm 1 mps 739 mmHg 95%

    31 May, Sunday

    Time Temperature Precipitation Wind Pressure Humidity
    00:00 +8°C° 0 mm 1 mps 739 mmHg 96%
    01:00 +8°C° 0 mm 1 mps 738 mmHg 96%
    02:00 +7°C° 0 mm 1 mps 738 mmHg 96%
    03:00 +6°C° 0 mm 2 mps 738 mmHg 96%
    04:00 +6°C° 0 mm 2 mps 738 mmHg 95%
    05:00 +7°C° 0 mm 2 mps 738 mmHg 90%
    06:00 +9°C° 0 mm 2 mps 739 mmHg 85%
    07:00 +10°C° 0 mm 2 mps 739 mmHg 80%
    08:00 +12°C° 0 mm 2 mps 739 mmHg 74%
    09:00 +13°C° 0 mm 3 mps 739 mmHg 68%
    10:00 +14°C° 0 mm 3 mps 739 mmHg 62%
    11:00 +13°C° 0.1 mm 3 mps 739 mmHg 68%
    12:00 +12°C° 0.1 mm 3 mps 738 mmHg 75%
    13:00 +12°C° 0.1 mm 3 mps 738 mmHg 82%
    14:00 +11°C° 0.3 mm 3 mps 738 mmHg 85%
    15:00 +12°C° 0.3 mm 2 mps 738 mmHg 89%
    16:00 +12°C° 0.3 mm 1 mps 738 mmHg 93%
    17:00 +12°C° 0.1 mm 1 mps 738 mmHg 94%
    18:00 +12°C° 0.1 mm 1 mps 738 mmHg 95%
    19:00 +12°C° 0.1 mm 1 mps 738 mmHg 95%
    20:00 +12°C° 0 mm 1 mps 738 mmHg 95%
    21:00 +12°C° 0 mm 1 mps 738 mmHg 95%
    22:00 +12°C° 0 mm 1 mps 738 mmHg 96%
    23:00 +12°C° 0 mm 1 mps 738 mmHg 95%

    1 June, Monday

    Time Temperature Precipitation Wind Pressure Humidity
    00:00 +12°C° 0 mm 1 mps 738 mmHg 95%
    01:00 +12°C° 0 mm 1 mps 738 mmHg 94%
    02:00 +12°C° 0 mm 1 mps 738 mmHg 95%
    03:00 +11°C° 0 mm 1 mps 738 mmHg 96%
    04:00 +11°C° 0 mm 1 mps 737 mmHg 97%
    05:00 +12°C° 0 mm 2 mps 738 mmHg 95%
    06:00 +13°C° 0 mm 2 mps 738 mmHg 94%
    07:00 +13°C° 0 mm 3 mps 738 mmHg 92%
    08:00 +16°C° 0 mm 3 mps 738 mmHg 84%
    09:00 +18°C° 0 mm 3 mps 738 mmHg 76%
    10:00 +20°C° 0 mm 4 mps 738 mmHg 68%
    11:00 +20°C° 0.3 mm 4 mps 738 mmHg 68%
    12:00 +20°C° 0.3 mm 4 mps 738 mmHg 68%
    13:00 +20°C° 0.3 mm 5 mps 737 mmHg 67%
    14:00 +21°C° 0 mm 5 mps 737 mmHg 63%
    15:00 +22°C° 0 mm 5 mps 737 mmHg 59%
    16:00 +23°C° 0 mm 5 mps 737 mmHg 55%
    17:00 +21°C° 0 mm 4 mps 737 mmHg 60%
    18:00 +20°C° 0 mm 4 mps 736 mmHg 65%
    19:00 +19°C° 0 mm 4 mps 736 mmHg 71%
    20:00 +17°C° 0 mm 3 mps 736 mmHg 74%
    21:00 +16°C° 0 mm 3 mps 737 mmHg 78%
    22:00 +13°C° 0 mm 3 mps 737 mmHg 82%
    23:00 +12°C° 0 mm 3 mps 737 mmHg 85%

    2 June, Tuesday

    Time Temperature Precipitation Wind Pressure Humidity
    00:00 +12°C° 0 mm 2 mps 737 mmHg 87%
    01:00 +10°C° 0 mm 2 mps 736 mmHg 90%
    02:00 +10°C° 0 mm 2 mps 736 mmHg 91%
    03:00 +10°C° 0 mm 2 mps 736 mmHg 92%
    04:00 +9°C° 0 mm 2 mps 736 mmHg 93%
    05:00 +11°C° 0 mm 3 mps 736 mmHg 85%
    06:00 +13°C° 0 mm 3 mps 736 mmHg 78%
    07:00 +15°C° 0 mm 4 mps 736 mmHg 70%
    08:00 +17°C° 0 mm 4 mps 736 mmHg 64%
    09:00 +19°C° 0 mm 4 mps 736 mmHg 58%
    10:00 +21°C° 0 mm 4 mps 736 mmHg 51%
    11:00 +21°C° 0 mm 4 mps 736 mmHg 50%
    12:00 +22°C° 0 mm 4 mps 736 mmHg 49%
    13:00 +23°C° 0 mm 4 mps 736 mmHg 48%
    14:00 +23°C° 0 mm 4 mps 735 mmHg 48%
    15:00 +23°C° 0 mm 4 mps 735 mmHg 48%
    16:00 +23°C° 0 mm 4 mps 735 mmHg 49%
    17:00 +22°C° 0 mm 4 mps 734 mmHg 54%
    18:00 +20°C° 0 mm 4 mps 734 mmHg 60%
    19:00 +19°C° 0 mm 3 mps 734 mmHg 66%
    20:00 +17°C° 0 mm 3 mps 734 mmHg 72%
    21:00 +16°C° 0 mm 3 mps 734 mmHg 79%
    22:00 +13°C° 0 mm 3 mps 734 mmHg 85%
    23:00 +13°C° 0 mm 3 mps 734 mmHg 86%
    Show more